User: anonymous   Login
Location: Invercargill
(46.4000°S, 168.3500°E)
Time: 23:25:01
(UTC+13:00)
Language:

Cosmos 2333 Rocket - Orbit

View from above orbital plane
View from above orbital plane
View from above satellite
View from above satellite

Ground track
Ground track

The orbit data is extracted from the following two-line orbital elements,

1 24298U 96051B   19077.44364610 -.00000030  00000-0  10017-4 0  9995
2 24298  70.8253 154.2782 0017659 302.1505  57.7901 14.12391581162086
Epoch (UTC): 18 March 2019 10:38:51
Eccentricity: 0.0017659
inclination: 70.8253°
perigee height: 838 km
apogee height: 864 km
right ascension of ascending node: 154.2782°
argument of perigee: 302.1505°
revolutions per day: 14.12391581
mean anomaly at epoch: 57.7901°
orbit number at epoch: 16208

The dashed part of the orbit path shows where the satellite is in the earth's shadow,  

DLR